SES-9

Last updated on Nov. 18, 2019, 4:21 a.m. UTC

1 41380U 16013A   19321.01794451 -.00000337  00000-0  00000+0 0  9997
2 41380   0.0183 278.5262 0000560 255.1511 356.9071  1.00270892 13647
UTC
Height (km)
Latitude
Longitude
Inclination
Orbital Period
UTC large
Height (km)
Speed (km/s)
/
Latitude / Longitude
Inclination (degrees)
Orbital Period (minutes)
Azimuth
Elevation
Range (km)
Doppler Factor
iOS Compass Heading
iOS Angle

Next 30 passes for location: Hong Kong

Rise time Rise Azimuth (degrees) Set time Set Azimuth (degrees) Duration Max altitude (degrees)

No matching passes for this satellites